Flag for Switzerland Weather past 2 weeks in Pully, Vaud, Switzerland

Now
67 °F

Mild.


Feels Like: 67 °F
Forecast: 48 / 69 °F
Wind: 9 mph from Northwest

Location: Aigle

Current Time: Sep 3, 2015 at 1:51:31 PM

Latest Report: Sep 3, 2015 at 1:00 PM


Visibility: N/A

Pressure: 29.94 "Hg

Humidity: 59%

Dew point: 52 °F

Location of PullyLocation

Historic Weather in Pully — Graph

°F

Pully temperature yesterday

Maximum temperature yesterday: 72 °F (at 5:00 PM)
Minimum temperature yesterday: 59 °F (at 7:00 AM)
Average temperature yesterday: 65 °F

Past Weeks' High & Low Weather Summary

 TemperatureHumidityPressure
High83 °F (Aug 28, 5:00 PM)98% (Aug 25, 3:00 AM)30.24 "Hg (Aug 25, 3:00 AM)
Low51 °F (Aug 20, 7:00 AM)37% (Aug 20, 6:00 PM)29.70 "Hg (Aug 24, 5:00 AM)
Average66 °F76%30.02 "Hg
* Reported Aug 19 12:00 Noon — Sep 3 12:00 Noon, Pully, Weather by CustomWeather, © 2015

Note: Actual official high and low records may vary slightly from our data, if they occured in-between our weather recording intervals... More about our weather records

Advertising

Pully weather history for previous 24 hours

 ConditionsComfort  
Time TempWeatherWind HumidityBarometerVisibility
12:00 PM
Thu, Sep 3
65 °FMild.8 mph60%29.95 "HgN/A
11:00 AM66 °FOvercast.9 mph57%29.94 "Hg16 mi
10:00 AM64 °FMild.9 mph67%29.96 "HgN/A
9:00 AM62 °FCool.No wind82%29.97 "HgN/A
8:00 AM58 °FOvercast.No wind96%29.97 "Hg16 mi
7:00 AM56 °FCool.1 mph96%29.96 "HgN/A
5:00 AM55 °FPassing clouds.1 mph97%29.96 "Hg16 mi
4:00 AM55 °FCool.1 mph96%29.98 "HgN/A
3:00 AM57 °FCool.1 mph94%29.98 "HgN/A
2:00 AM57 °FCool.No wind94%29.98 "HgN/A
1:00 AM59 °FCool.1 mph87%29.97 "HgN/A
12:00 AM58 °FCool.1 mph93%29.97 "HgN/A
10:00 PM
Wed, Sep 2
67 °FMild.8 mph62%29.95 "HgN/A
9:00 PM65 °FMild.6 mph67%29.93 "HgN/A
8:00 PM68 °FPartly sunny.3 mph60%29.91 "Hg19 mi
7:00 PM69 °FMild.6 mph60%29.91 "HgN/A
6:00 PM69 °FMild.7 mph66%29.92 "HgN/A
5:00 PM72 °FScattered clouds.7 mph59%29.91 "Hg22 mi
4:00 PM72 °FMild.10 mph59%29.91 "HgN/A
3:00 PM69 °FMild.10 mph64%29.93 "HgN/A
2:00 PM68 °FPartly sunny.8 mph68%29.94 "Hg17 mi
1:00 PM70 °FMild.12 mph70%29.94 "HgN/A
Weather by CustomWeather, © 2015

See weather overviewHow to use our weather pages